FW7384 Weather Reports


Display with metric or nautical units.
time (UTC)temp
F
wind
direction
speed
MPH
gust
MPH
rain 1hr
in
rain 24hr
in
rain mn
in
humidity
%
barometer
mb
20260508105003 59 83 4.0 9.0 0.00 0.00 0.00 27 1023.8
20260508104503 58 70 4.0 13.0 0.00 0.00 0.00 28 1024.0
20260508104003 58 83 4.0 13.0 0.00 0.00 0.00 26 1024.0
20260508103503 58 98 4.0 10.0 0.00 0.00 0.00 27 1023.9
20260508103003 59 117 4.0 10.0 0.00 0.00 0.00 26 1024.1
20260508102503 59 172 4.0 13.0 0.00 0.00 0.00 26 1024.0
20260508102003 59 160 5.0 13.0 0.00 0.00 0.00 26 1023.7
20260508101503 58 138 5.0 11.0 0.00 0.00 0.00 27 1023.9
20260508101003 59 156 4.0 12.0 0.00 0.00 0.00 26 1023.9
20260508100714 58 148 4.0 12.0 0.00 0.00 0.00 27 1023.9
20260508100003 58 110 4.0 11.0 0.00 0.00 0.00 28 1024.0
20260508095503 58 109 5.0 11.0 0.00 0.00 0.00 27 1023.9
20260508095003 58 106 5.0 15.0 0.00 0.00 0.00 29 1024.0
20260508094503 57 100 5.0 15.0 0.00 0.00 0.00 28 1024.1
20260508094003 57 138 5.0 11.0 0.00 0.00 0.00 28 1024.0
20260508093503 57 132 4.0 12.0 0.00 0.00 0.00 28 1024.0
20260508093004 57 119 4.0 12.0 0.00 0.00 0.00 29 1023.9
20260508092503 57 137 5.0 13.0 0.00 0.00 0.00 29 1024.1
20260508092003 57 117 5.0 13.0 0.00 0.00 0.00 30 1024.1
20260508091503 57 115 5.0 11.0 0.00 0.00 0.00 31 1023.9
20260508091003 57 159 4.0 12.0 0.00 0.00 0.00 31 1023.9
20260508090503 56 173 5.0 12.0 0.00 0.00 0.00 31 1024.0
20260508090213 56 170 5.0 12.0 0.00 0.00 0.00 31 1024.1
20260508085503 56 172 5.0 10.0 0.00 0.00 0.00 32 1023.9
20260508085003 56 153 6.0 12.0 0.00 0.00 0.00 32 1024.0
20260508084503 56 136 6.0 12.0 0.00 0.00 0.00 33 1024.0
20260508084003 55 112 4.0 12.0 0.00 0.00 0.00 36 1024.1
20260508083503 55 83 4.0 9.0 0.00 0.00 0.00 36 1024.1
20260508083212 55 110 4.0 10.0 0.00 0.00 0.00 38 1024.0
20260508082713 55 136 6.0 12.0 0.00 0.00 0.00 38 1023.9
20260508082003 54 134 5.0 11.0 0.00 0.00 0.00 38 1024.2
20260508081713 54 134 4.0 9.0 0.00 0.00 0.00 39 1024.0
20260508081212 54 101 4.0 11.0 0.00 0.00 0.00 40 1024.1
20260508080713 53 88 5.0 11.0 0.00 0.00 0.00 41 1024.0
20260508080003 53 128 4.0 10.0 0.00 0.00 0.00 41 1024.1
20260508075713 53 113 4.0 9.0 0.00 0.00 0.00 41 1024.0
20260508075212 53 116 4.0 9.0 0.00 0.00 0.00 41 1024.2
20260508074503 53 105 5.0 11.0 0.00 0.00 0.00 43 1024.1
20260508074003 52 82 6.0 13.0 0.00 0.00 0.00 45 1023.9
20260508073713 52 91 6.0 13.0 0.00 0.00 0.00 45 1024.0
20260508073214 52 105 6.0 17.0 0.00 0.00 0.00 44 1024.0
20260508072503 51 116 6.0 17.0 0.00 0.00 0.00 45 1024.1
20260508072003 52 116 4.0 11.0 0.00 0.00 0.00 45 1024.0
20260508071503 51 119 5.0 11.0 0.00 0.00 0.00 47 1024.0
20260508071214 51 114 6.0 14.0 0.00 0.00 0.00 47 1023.9
20260508070503 51 121 6.0 14.0 0.00 0.00 0.00 49 1023.8
20260508070003 51 124 5.0 11.0 0.00 0.00 0.00 49 1023.9
20260508065713 51 129 4.0 10.0 0.00 0.00 0.00 48 1023.7
20260508065003 50 129 4.0 8.0 0.00 0.00 0.00 49 1023.6
20260508064503 50 117 4.0 7.0 0.00 0.00 0.00 51 1023.5
20260508064003 49 117 4.0 11.0 0.00 0.00 0.00 50 1023.6
20260508063503 49 105 5.0 11.0 0.00 0.00 0.00 51 1023.5
20260508063003 49 104 5.0 11.0 0.00 0.00 0.00 51 1023.6
20260508062504 48 116 5.0 11.0 0.00 0.00 0.00 51 1023.5
20260508062003 48 112 4.0 9.0 0.00 0.00 0.00 51 1023.2
20260508061503 49 119 3.0 9.0 0.00 0.00 0.00 51 1023.2
20260508061003 48 111 3.0 9.0 0.00 0.00 0.00 51 1023.2
20260508060503 48 105 3.0 6.0 0.00 0.00 0.00 51 1023.0
20260508060003 48 117 3.0 8.0 0.00 0.00 0.00 53 1023.0
20260508055713 47 108 3.0 8.0 0.00 0.00 0.00 53 1023.1
20260508055214 47 99 3.0 7.0 0.00 0.00 0.00 54 1023.0
20260508054503 47 86 3.0 7.0 0.00 0.00 0.00 55 1023.0
20260508054213 46 89 3.0 6.0 0.00 0.00 0.00 56 1023.0
20260508053503 46 87 3.0 6.0 0.00 0.00 0.00 57 1022.9
20260508053003 45 88 3.0 4.0 0.00 0.00 0.00 59 1022.9
20260508052503 44 89 3.0 4.0 0.00 0.00 0.00 60 1022.9
20260508052003 43 88 2.0 5.0 0.00 0.00 0.00 61 1022.9
20260508051503 42 76 2.0 5.0 0.00 0.00 0.00 63 1022.9
20260508051003 41 60 1.0 4.0 0.00 0.00 0.00 65 1022.8
20260508050503 40 67 1.0 3.0 0.00 0.00 0.00 68 1022.7
20260508050004 40 65 1.0 3.0 0.00 0.00 0.00 68 1022.6
20260508045503 38 45 1.0 2.0 0.00 0.00 0.00 70 1022.7
20260508045003 37 39 1.0 2.0 0.00 0.00 0.00 72 1022.5
20260508044504 36 36 1.0 3.0 0.00 0.00 0.00 74 1022.7
20260508044213 36 32 1.0 3.0 0.00 0.00 0.00 75 1022.4
20260508043503 34 30 1.0 2.0 0.00 0.00 0.00 77 1022.4
20260508043003 33 27 1.0 2.0 0.00 0.00 0.00 78 1022.5
20260508042503 33 28 1.0 2.0 0.00 0.00 0.00 79 1022.4
20260508042003 32 31 1.0 3.0 0.00 0.00 0.00 80 1022.4
20260508041504 32 35 1.0 3.0 0.00 0.00 0.00 81 1022.4
20260508041003 31 37 2.0 3.0 0.00 0.00 0.00 80 1022.5
20260508040503 31 34 2.0 3.0 0.00 0.00 0.00 80 1022.1
20260508040003 31 32 2.0 3.0 0.00 0.00 0.00 80 1022.4
20260508035504 31 29 2.0 3.0 0.00 0.00 0.00 81 1022.2
20260508035213 31 27 2.0 3.0 0.00 0.00 0.00 80 1022.2
20260508034503 31 26 2.0 3.0 0.00 0.00 0.00 80 1022.3
20260508034003 31 21 2.0 3.0 0.00 0.00 0.00 81 1022.0
20260508033503 31 26 1.0 3.0 0.00 0.00 0.00 82 1022.1
20260508033003 30 43 1.0 2.0 0.00 0.00 0.00 84 1022.2
20260508032503 29 56 0.0 2.0 0.00 0.00 0.00 90 1022.1
20260508032003 29 52 1.0 3.0 0.00 0.00 0.00 85 1022.1
20260508031714 29 47 2.0 3.0 0.00 0.00 0.00 84 1021.9
20260508031003 29 39 2.0 3.0 0.00 0.00 0.00 83 1022.1
20260508030503 29 39 2.0 3.0 0.00 0.00 0.00 83 1022.0
20260508030003 30 32 2.0 3.0 0.00 0.00 0.00 82 1022.1
20260508025504 30 28 2.0 3.0 0.00 0.00 0.00 82 1022.0
20260508025003 30 26 2.0 3.0 0.00 0.00 0.00 82 1021.9
20260508024504 30 29 2.0 3.0 0.00 0.00 0.00 82 1021.8
20260508024214 30 32 1.0 3.0 0.00 0.00 0.00 83 1021.9
20260508023503 30 36 1.0 2.0 0.00 0.00 0.00 83 1022.0
20260508023003 30 37 1.0 2.0 0.00 0.00 0.00 83 1021.7
20260508022503 30 42 1.0 2.0 0.00 0.00 0.00 81 1021.7
20260508022003 30 44 0.0 2.0 0.00 0.00 0.00 82 1021.8
20260508021503 29 28 1.0 2.0 0.00 0.00 0.00 87 1021.6
20260508021003 31 34 1.0 3.0 0.00 0.00 0.00 84 1021.7
20260508020503 30 44 1.0 3.0 0.00 0.00 0.00 84 1021.8
20260508020003 30 36 1.0 2.0 0.00 0.00 0.00 84 1021.6
20260508015503 30 40 1.0 2.0 0.00 0.00 0.00 83 1021.6
20260508015003 31 48 2.0 2.0 0.00 0.00 0.00 81 1021.4
20260508014504 31 58 1.0 2.0 0.00 0.00 0.00 81 1021.3
20260508014003 30 44 0.0 2.0 0.00 0.00 0.00 85 1021.3
20260508013503 30 40 0.0 2.0 0.00 0.00 0.00 88 1021.5
20260508013214 30 39 0.0 2.0 0.00 0.00 0.00 87 1021.6
20260508012503 30 41 1.0 2.0 0.00 0.00 0.00 83 1021.4
20260508012003 30 43 1.0 2.0 0.00 0.00 0.00 81 1021.4
20260508011503 31 44 1.0 2.0 0.00 0.00 0.00 79 1021.3
20260508011003 31 40 0.0 2.0 0.00 0.00 0.00 83 1021.1
20260508010713 31 41 0.0 2.0 0.00 0.00 0.00 84 1021.3
20260508010003 32 37 1.0 3.0 0.00 0.00 0.00 79 1021.1
20260508005713 32 35 1.0 3.0 0.00 0.00 0.00 79 1020.9
20260508005003 32 38 2.0 3.0 0.00 0.00 0.00 81 1020.9
20260508004503 31 34 1.0 3.0 0.00 0.00 0.00 82 1020.9
20260508004003 31 32 1.0 3.0 0.00 0.00 0.00 80 1021.0
20260508003713 31 33 1.0 3.0 0.00 0.00 0.00 80 1020.8
20260508003214 32 43 1.0 2.0 0.00 0.00 0.00 80 1020.9
20260508002503 33 29 1.0 3.0 0.00 0.00 0.00 78 1020.8
20260508002003 33 32 1.0 3.0 0.00 0.00 0.00 78 1020.9
20260508001503 33 17 1.0 3.0 0.00 0.00 0.00 73 1020.8
20260508001003 33 115 0.0 3.0 0.00 0.00 0.00 75 1020.8
20260508000503 33 234 1.0 3.0 0.00 0.00 0.00 75 1020.8
20260508000003 32 106 1.0 3.0 0.00 0.00 0.00 77 1020.8
20260507235503 32 77 1.0 3.0 0.00 0.00 0.00 77 1020.7
20260507235003 33 55 1.0 2.0 0.00 0.00 0.00 76 1020.6
20260507234504 32 46 0.0 1.0 0.00 0.00 0.00 81 1020.5
20260507234004 32 41 0.0 2.0 0.00 0.00 0.00 81 1020.6
20260507233503 32 29 0.0 2.0 0.00 0.00 0.00 82 1020.5
20260507233003 32 51 1.0 2.0 0.00 0.00 0.00 81 1020.5
20260507232503 33 56 1.0 2.0 0.00 0.00 0.00 78 1020.4
20260507232003 33 46 0.0 2.0 0.00 0.00 0.00 78 1020.4
20260507231503 33 45 0.0 2.0 0.00 0.00 0.00 78 1020.2
20260507231003 33 45 1.0 2.0 0.00 0.00 0.00 78 1020.2
20260507230503 33 43 1.0 2.0 0.00 0.00 0.00 76 1020.5
20260507230004 34 44 1.0 2.0 0.00 0.00 0.00 72 1020.4
20260507225503 35 48 0.0 1.0 0.00 0.00 0.00 72 1020.2
20260507225003 35 333 0.0 1.0 0.00 0.00 0.00 74 1020.2
20260507224504 34 333 0.0 1.0 0.00 0.00 0.00 76 1020.4
20260507224003 35 78 0.0 2.0 0.00 0.00 0.00 74 1020.2
20260507223503 35 66 0.0 2.0 0.00 0.00 0.00 72 1020.4
20260507223003 34 38 0.0 2.0 0.00 0.00 0.00 72 1020.0
20260507222503 35 52 0.0 2.0 0.00 0.00 0.00 71 1020.0
20260507222003 35 43 0.0 2.0 0.00 0.00 0.00 71 1020.2
20260507221714 35 44 0.0 2.0 0.00 0.00 0.00 70 1020.0
20260507221003 35 63 0.0 1.0 0.00 0.00 0.00 71 1019.9
20260507220503 36 51 0.0 2.0 0.00 0.00 0.00 70 1020.0
20260507220004 36 64 0.0 2.0 0.00 0.00 0.00 68 1019.9
20260507215714 36 71 0.0 2.0 0.00 0.00 0.00 69 1019.9
20260507215003 36 55 0.0 3.0 0.00 0.00 0.00 69 1020.0
20260507214503 38 49 0.0 3.0 0.00 0.00 0.00 66 1020.0
20260507214003 38 36 1.0 3.0 0.00 0.00 0.00 68 1020.0
20260507213713 38 29 1.0 3.0 0.00 0.00 0.00 70 1020.1
20260507213003 37 22 2.0 3.0 0.00 0.00 0.00 67 1019.9
20260507212503 38 34 1.0 2.0 0.00 0.00 0.00 66 1019.8
20260507212003 38 82 0.0 2.0 0.00 0.00 0.00 64 1019.8
20260507211713 38 97 0.0 2.0 0.00 0.00 0.00 64 1019.8
20260507211003 38 85 0.0 2.0 0.00 0.00 0.00 64 1019.6
20260507210713 38 88 0.0 2.0 0.00 0.00 0.00 64 1019.6
20260507210003 39 102 0.0 2.0 0.00 0.00 0.00 64 1019.4
20260507205503 39 89 1.0 3.0 0.00 0.00 0.00 63 1019.5
20260507205003 39 60 1.0 3.0 0.00 0.00 0.00 61 1019.4
20260507204503 40 61 0.0 3.0 0.00 0.00 0.00 58 1019.4
20260507204003 40 203 0.0 2.0 0.00 0.00 0.00 58 1019.4
20260507203503 40 234 0.0 2.0 0.00 0.00 0.00 58 1019.2
20260507203003 40 231 1.0 2.0 0.00 0.00 0.00 59 1019.1
20260507202713 41 221 0.0 2.0 0.00 0.00 0.00 59 1019.1
20260507202003 41 216 1.0 3.0 0.00 0.00 0.00 57 1019.0
20260507201503 42 211 1.0 3.0 0.00 0.00 0.00 56 1019.0
20260507201003 43 197 1.0 2.0 0.00 0.00 0.00 54 1019.1
20260507200713 43 189 0.0 2.0 0.00 0.00 0.00 52 1019.0
20260507200003 45 191 0.0 1.0 0.00 0.00 0.00 48 1018.9
20260507195713 45 110 0.0 1.0 0.00 0.00 0.00 46 1018.7
20260507195003 46 51 0.0 2.0 0.00 0.00 0.00 44 1018.6
20260507194503 46 19 0.0 2.0 0.00 0.00 0.00 42 1018.5
20260507194003 47 56 0.0 2.0 0.00 0.00 0.00 42 1018.5
20260507193503 48 49 1.0 2.0 0.00 0.00 0.00 39 1018.5
20260507193003 49 30 1.0 3.0 0.00 0.00 0.00 38 1018.4
20260507192503 49 16 2.0 3.0 0.00 0.00 0.00 36 1018.3
20260507192003 50 4 2.0 4.0 0.00 0.00 0.00 35 1018.2
20260507191503 50 350 2.0 4.0 0.00 0.00 0.00 34 1018.2
20260507191003 51 355 3.0 6.0 0.00 0.00 0.00 33 1018.2
20260507190713 51 358 3.0 6.0 0.00 0.00 0.00 33 1018.2
20260507190004 51 6 3.0 6.0 0.00 0.00 0.00 33 1018.0
20260507185503 52 14 3.0 7.0 0.00 0.00 0.00 32 1018.0
20260507185003 52 21 4.0 7.0 0.00 0.00 0.00 32 1017.9
20260507184503 53 21 3.0 6.0 0.00 0.00 0.00 31 1017.9
20260507184003 53 15 2.0 6.0 0.00 0.00 0.00 31 1017.6
20260507183503 53 11 2.0 4.0 0.00 0.00 0.00 31 1017.6
20260507183003 54 13 3.0 6.0 0.00 0.00 0.00 30 1017.6
20260507182712 54 14 3.0 6.0 0.00 0.00 0.00 30 1017.5
20260507182003 54 350 4.0 6.0 0.00 0.00 0.00 29 1017.6
20260507181714 54 347 4.0 7.0 0.00 0.00 0.00 28 1017.6
20260507181213 55 352 4.0 8.0 0.00 0.00 0.00 28 1017.4
20260507180503 55 349 4.0 8.0 0.00 0.00 0.00 28 1017.6
20260507180213 55 351 3.0 7.0 0.00 0.00 0.00 28 1017.3
20260507175503 55 343 3.0 6.0 0.00 0.00 0.00 28 1017.4
20260507175003 55 317 3.0 6.0 0.00 0.00 0.00 28 1017.4
20260507174503 56 290 3.0 6.0 0.00 0.00 0.00 27 1017.3
20260507174213 56 301 3.0 6.0 0.00 0.00 0.00 27 1017.3
20260507173503 56 301 3.0 7.0 0.00 0.00 0.00 27 1017.1
20260507173003 56 300 4.0 7.0 0.00 0.00 0.00 26 1017.2
20260507172504 56 292 4.0 7.0 0.00 0.00 0.00 26 1017.1
20260507172003 57 280 3.0 6.0 0.00 0.00 0.00 26 1017.2
20260507171503 57 293 2.0 5.0 0.00 0.00 0.00 26 1016.9
20260507171003 57 305 2.0 6.0 0.00 0.00 0.00 25 1016.8
20260507170503 57 292 2.0 6.0 0.00 0.00 0.00 24 1016.9
20260507170003 57 284 2.0 5.0 0.00 0.00 0.00 25 1016.8
20260507165503 57 289 2.0 4.0 0.00 0.00 0.00 25 1016.8
20260507164503 57 269 2.0 5.0 0.00 0.00 0.00 25 1016.8
20260507164213 57 297 2.0 5.0 0.00 0.00 0.00 25 1016.7
20260507163503 57 310 2.0 6.0 0.00 0.00 0.00 25 1016.7
20260507163003 57 301 3.0 6.0 0.00 0.00 0.00 25 1016.8
20260507162713 57 289 3.0 7.0 0.00 0.00 0.00 24 1016.8
20260507162003 57 276 4.0 8.0 0.00 0.00 0.00 25 1016.7
20260507161503 58 273 3.0 7.0 0.00 0.00 0.00 25 1016.7
20260507161003 58 279 3.0 11.0 0.00 0.00 0.00 25 1016.6
20260507160503 58 283 4.0 11.0 0.00 0.00 0.00 24 1016.6
20260507160004 58 283 3.0 9.0 0.00 0.00 0.00 25 1016.6
20260507155503 58 297 2.0 9.0 0.00 0.00 0.00 25 1016.6
20260507155003 58 229 2.0 5.0 0.00 0.00 0.00 25 1016.7
20260507154503 58 94 2.0 7.0 0.00 0.00 0.00 24 1016.4
20260507154003 57 327 3.0 7.0 0.00 0.00 0.00 25 1016.5
20260507153504 58 309 2.0 6.0 0.00 0.00 0.00 24 1016.7
20260507153003 57 320 3.0 7.0 0.00 0.00 0.00 25 1016.6
20260507152503 57 297 4.0 11.0 0.00 0.00 0.00 25 1016.6
20260507152003 58 269 4.0 11.0 0.00 0.00 0.00 25 1016.4
20260507151504 57 211 4.0 7.0 0.00 0.00 0.00 25 1016.4
20260507151003 57 248 4.0 9.0 0.00 0.00 0.00 24 1016.4
20260507150503 57 269 3.0 9.0 0.00 0.00 0.00 24 1016.4
20260507150214 58 241 3.0 5.0 0.00 0.00 0.00 24 1016.4
20260507145503 58 231 3.0 6.0 0.00 0.00 0.00 25 1016.4
20260507145003 57 260 4.0 6.0 0.00 0.00 0.00 24 1016.2
20260507144504 58 257 4.0 10.0 0.00 0.00 0.00 24 1016.3
20260507144003 58 263 4.0 10.0 0.00 0.00 0.00 25 1016.4
20260507143503 58 257 4.0 9.0 0.00 0.00 0.00 25 1016.2
20260507143003 58 238 2.0 6.0 0.00 0.00 0.00 23 1016.3
20260507142713 59 225 3.0 6.0 0.00 0.00 0.00 25 1016.3
20260507142003 58 268 3.0 6.0 0.00 0.00 0.00 25 1016.2
20260507141503 58 316 2.0 6.0 0.00 0.00 0.00 24 1016.3
20260507141003 58 254 2.0 6.0 0.00 0.00 0.00 25 1016.3
20260507140503 58 270 3.0 9.0 0.00 0.00 0.00 24 1016.5
20260507140003 57 309 4.0 9.0 0.00 0.00 0.00 25 1016.4
20260507135712 57 319 5.0 9.0 0.00 0.00 0.00 25 1016.4
20260507135003 57 301 4.0 9.0 0.00 0.00 0.00 26 1016.5
20260507134503 57 294 4.0 9.0 0.00 0.00 0.00 23 1016.3
20260507134003 57 276 3.0 8.0 0.00 0.00 0.00 23 1016.2
20260507133503 56 257 3.0 7.0 0.00 0.00 0.00 23 1016.4
20260507133003 56 280 3.0 8.0 0.00 0.00 0.00 24 1016.3
20260507132503 57 281 4.0 9.0 0.00 0.00 0.00 23 1016.4
20260507132003 57 262 4.0 9.0 0.00 0.00 0.00 23 1016.3
20260507131503 57 232 3.0 7.0 0.00 0.00 0.00 23 1016.3
20260507131004 59 198 3.0 9.0 0.00 0.00 0.00 22 1016.1
20260507130503 58 199 3.0 9.0 0.00 0.00 0.00 23 1016.4
20260507130003 58 256 4.0 8.0 0.00 0.00 0.00 24 1016.2
20260507125714 56 270 3.0 8.0 0.00 0.00 0.00 25 1016.2
20260507125003 56 287 4.0 12.0 0.00 0.00 0.00 24 1016.2
20260507124503 56 291 3.0 12.0 0.00 0.00 0.00 25 1016.1
20260507124003 56 293 3.0 8.0 0.00 0.00 0.00 25 1016.0
20260507123714 56 295 3.0 8.0 0.00 0.00 0.00 25 1016.1
20260507123003 56 263 5.0 13.0 0.00 0.00 0.00 24 1016.3
20260507122503 56 263 5.0 13.0 0.00 0.00 0.00 24 1016.1
20260507122004 57 228 3.0 6.0 0.00 0.00 0.00 22 1016.0
20260507121714 57 264 3.0 9.0 0.00 0.00 0.00 24 1016.2
20260507121213 56 300 3.0 10.0 0.00 0.00 0.00 23 1016.2
20260507120503 55 318 4.0 10.0 0.00 0.00 0.00 23 1016.1
20260507120004 56 259 3.0 11.0 0.00 0.00 0.00 23 1016.1
20260507115503 56 214 4.0 11.0 0.00 0.00 0.00 22 1016.3
20260507115213 57 218 4.0 11.0 0.00 0.00 0.00 21 1016.3
20260507114503 56 247 3.0 8.0 0.00 0.00 0.00 21 1016.1
20260507114003 56 169 3.0 6.0 0.00 0.00 0.00 21 1016.1
20260507113503 56 211 3.0 6.0 0.00 0.00 0.00 21 1016.0
20260507113213 56 254 3.0 6.0 0.00 0.00 0.00 20 1016.0
20260507112503 54 295 4.0 9.0 0.00 0.00 0.00 21 1016.3
20260507112003 55 322 4.0 9.0 0.00 0.00 0.00 21 1016.4
20260507111714 55 310 4.0 7.0 0.00 0.00 0.00 24 1016.0
20260507111003 55 251 3.0 7.0 0.00 0.00 0.00 19 1016.3
20260507110503 55 290 2.0 7.0 0.00 0.00 0.00 23 1016.1
20260507110003 55 338 3.0 7.0 0.00 0.00 0.00 23 1016.1
20260507105713 55 358 2.0 8.0 0.00 0.00 0.00 25 1016.1
20260507105212 54 344 3.0 11.0 0.00 0.00 0.00 24 1016.1